Wind_Gust
17 18 16 14 9 8 10 11 8 12 12 15 18 18 19 17 15 15 19 19 22 22 19 19 19 20 20 18 15 16 19 21 21 21 21 22 25 25 16 11 8 7 12 8 10 15 13 17 15 12 9 11 10 12 13 13 12 12 11 10 12 12 10
15 15 11 9 9 12 18 13 10 11 11 9 13 13 13 15 17 14 14 17 21 21 22 23 19 16 20 18 23 23 21 21 20 19 20 23 22 21 22 16 12 13 14 10 10 11 12 15 15 16 14 9 10 11 10 10 11 12 13 12 12 14 13
10 10 11 15 16 17 15 15 11 10 13 16 14 12 13 15 16 15 15 16 17 22 23 22 21 22 20 21 22 20 22 20 19 20 21 21 22 19 22 22 19 15 15 14 14 15 10 10 13 20 18 17 17 14 12 12 12 13 13 12 13 14 14
11 10 13 13 14 15 16 14 12 12 12 12 14 13 16 16 16 18 19 21 22 20 23 22 21 22 22 20 18 22 20 20 21 19 20 20 19 19 20 21 22 22 20 20 18 18 14 15 14 15 16 19 17 15 14 13 13 13 13 13 13 14 14
12 11 13 13 13 10 13 12 12 12 13 12 11 12 15 17 18 19 19 19 19 20 23 23 22 21 21 19 19 22 21 20 18 18 15 17 18 18 19 22 21 19 17 14 15 16 16 14 14 14 17 18 17 16 15 10 12 12 13 13 14 13 14
10 11 12 15 16 20 20 16 17 19 19 16 16 16 15 15 15 17 20 21 19 22 23 21 21 19 17 16 15 18 16 20 22 21 21 21 22 22 22 22 21 20 19 14 13 15 13 11 13 15 15 17 17 17 15 14 14 12 13 14 14 13 12
12 16 19 20 16 17 15 17 18 16 18 20 18 19 15 15 16 16 13 16 17 17 20 20 17 15 12 15 17 18 20 17 15 20 23 21 21 21 20 21 24 20 18 16 15 15 14 15 16 16 17 15 13 16 14 15 14 15 13 14 14 14 12
13 17 18 19 17 16 17 16 18 17 17 17 20 21 17 17 14 15 17 18 14 16 19 20 17 15 14 15 18 20 18 18 19 19 18 21 22 22 20 21 22 20 18 18 16 16 16 16 16 17 20 19 15 13 15 16 14 17 16 16 16 15 14
15 16 17 16 16 16 17 19 18 16 16 16 15 16 18 18 19 20 17 15 14 15 17 18 18 17 16 17 18 17 19 20 18 20 20 22 23 21 21 21 19 19 17 18 18 17 17 15 14 15 18 18 20 18 16 16 18 19 18 19 18 17 17
15 16 17 14 15 16 15 13 13 14 15 16 15 15 18 21 20 19 20 20 18 15 16 18 19 19 19 18 18 20 20 19 20 22 22 23 23 22 22 20 20 18 17 16 17 16 16 14 15 16 17 18 17 18 20 20 21 22 21 22 20 20 19
16 16 15 17 17 15 14 12 13 17 18 19 14 15 17 19 20 19 19 20 16 15 16 18 19 21 20 19 20 20 20 18 17 17 21 21 20 21 21 20 20 17 16 16 18 15 15 15 15 17 17 16 16 17 17 19 19 19 17 19 18 18 19
17 18 16 16 16 15 15 14 15 17 17 17 16 17 20 20 19 19 18 18 17 16 15 17 18 18 20 19 19 19 18 18 18 19 17 18 18 16 20 20 20 20 18 17 16 16 15 16 16 17 16 16 16 15 15 16 16 15 13 18 19 13 19
18 18 17 15 15 14 14 15 16 17 19 17 18 18 20 20 19 18 20 20 20 18 16 15 18 19 20 20 19 19 19 20 21 21 19 19 19 20 20 21 21 20 20 19 18 16 16 16 15 17 17 17 16 15 14 16 17 13 11 10 14 15 15
17 16 15 12 14 16 16 18 20 21 18 18 18 20 21 22 20 20 20 21 21 22 20 20 19 18 18 20 19 17 17 20 21 17 17 18 18 19 20 21 21 20 20 19 20 18 18 18 16 16 17 17 18 15 17 17 19 13 9 7 7 14 14
20 16 15 16 17 19 21 21 21 19 19 17 19 20 21 21 20 20 20 21 22 22 22 22 20 20 19 19 19 16 17 20 20 20 15 16 18 20 19 20 19 20 20 21 19 20 19 18 19 19 19 19 19 18 18 20 19 16 12 11 11 11 14
18 18 17 17 16 19 20 20 17 18 17 17 19 21 21 21 21 20 20 20 21 21 21 21 21 21 21 21 21 18 18 20 22 21 21 20 19 20 21 21 20 20 20 19 19 18 17 16 16 19 19 19 19 17 19 19 17 18 15 14 12 15 15
18 18 17 17 18 18 19 19 18 18 18 19 19 19 19 19 19 20 21 20 21 20 21 21 22 22 22 21 21 20 20 21 21 21 19 21 22 23 23 21 20 19 19 19 19 18 19 17 19 15 17 16 15 16 16 15 16 14 17 14 14 16 16
19 18 16 15 15 17 18 19 19 18 18 21 19 18 18 18 19 21 22 22 22 22 21 21 21 21 20 19 20 19 19 20 20 18 19 20 18 23 22 21 21 20 21 20 19 18 18 19 19 17 16 17 17 16 14 16 18 17 15 16 14 10 11
20 20 19 18 18 19 20 19 19 20 19 21 20 19 18 19 20 21 22 23 23 23 23 22 22 21 21 21 18 17 18 18 18 15 19 18 22 23 20 19 20 21 21 20 19 18 18 19 20 19 18 16 18 15 14 16 17 16 17 18 12 13 11
23 21 20 20 19 21 21 20 20 22 19 20 19 18 18 19 19 21 22 22 23 22 22 22 22 22 22 21 21 23 22 19 17 17 17 16 21 22 19 17 16 19 20 19 19 19 19 18 19 19 17 16 18 17 16 17 17 12 13 8 11 11 13
24 24 23 21 20 19 20 20 20 18 17 19 20 19 20 19 20 21 23 23 22 21 21 21 22 21 21 21 22 21 19 17 18 21 19 18 18 16 16 13 14 17 17 16 17 17 19 19 15 16 19 18 17 16 16 15 15 18 21 22 17 14 13
22 24 25 24 21 20 20 19 19 19 19 18 19 20 19 19 21 22 21 21 21 20 22 22 22 21 21 19 18 20 19 20 20 18 17 14 19 15 15 11 11 12 12 8 8 8 9 12 21 18 14 14 17 18 17 17 16 17 19 16 13 10 12
25 24 24 23 22 20 21 20 20 19 20 20 20 18 20 20 22 23 21 22 21 21 22 20 13 15 13 18 18 15 15 16 16 10 11 16 16 14 13 13 12 9 10 11 11 11 12 14 11 16 20 20 20 20 20 19 19 18 18 18 15 14 14
24 23 23 24 22 21 21 20 21 21 20 19 19 18 19 19 20 20 22 22 22 20 17 12 12 14 15 16 18 17 17 19 18 16 17 15 16 18 16 14 13 11 10 8 12 10 15 12 7 3 3 4 4 14 18 20 18 16 18 18 19 18 16
23 23 23 23 24 23 22 20 19 21 21 19 16 14 16 18 18 19 20 23 17 14 13 9 13 16 15 16 15 19 15 16 19 18 15 18 16 13 14 13 11 11 12 13 14 13 12 12 11 10 10 7 5 5 5 10 15 17 17 18 16 15 13
23 22 22 21 20 20 20 19 18 17 15 11 11 13 13 12 14 15 15 15 16 14 11 9 14 15 15 16 16 15 16 17 17 20 19 15 13 14 13 13 12 11 13 13 15 15 17 16 13 15 14 13 12 8 4 4 6 10 12 13 11 11 11
23 22 20 19 19 19 20 19 18 17 16 14 10 8 7 8 7 9 11 13 13 12 11 8 11 13 15 15 15 10 15 15 14 15 14 12 12 13 13 14 14 13 13 13 14 17 17 18 17 16 14 13 13 12 9 8 4 2 5 10 14 11 9
22 22 21 20 19 19 19 18 20 20 18 16 15 14 13 11 11 11 11 12 12 11 8 7 12 16 17 18 17 12 15 15 14 13 12 11 11 10 10 10 12 14 14 13 13 15 19 18 17 17 16 17 17 16 17 15 12 9 10 9 10 13 11
23 22 23 23 23 23 21 20 20 20 18 18 14 12 13 14 15 19 21 19 17 16 19 12 14 18 20 20 18 16 16 15 15 14 14 12 11 10 9 10 13 15 15 16 11 12 14 20 19 19 19 19 20 22 21 13 16 18 19 19 19 17 16
23 23 23 24 24 24 23 22 20 19 20 19 17 17 16 17 18 20 23 22 21 19 17 21 16 19 20 19 14 16 16 17 16 16 14 12 13 12 10 9 12 16 17 17 13 15 14 14 19 20 20 19 21 24 21 18 19 22 23 23 21 18 16
22 22 22 24 24 23 23 23 23 20 19 20 18 16 13 19 19 19 22 23 21 16 17 21 20 16 13 16 17 18 16 18 16 16 15 13 13 14 15 13 7 14 18 19 14 15 14 16 20 20 21 21 20 22 20 16 17 20 19 21 21 20 16
22 21 23 22 23 24 23 22 20 19 17 17 15 15 18 20 20 22 21 17 22 22 19 19 22 19 17 12 15 15 16 18 17 13 15 15 14 14 14 14 14 11 14 17 13 10 10 14 19 18 18 19 20 19 17 12 16 17 16 16 14 17 18
23 22 22 21 21 21 19 22 22 17 15 15 18 17 18 20 20 19 18 20 21 21 20 20 22 21 15 13 8 14 14 18 17 15 13 15 16 14 14 14 14 11 12 13 11 9 7 6 15 16 16 18 20 18 12 12 12 15 17 17 17 17 16
22 22 21 21 20 21 22 19 18 20 18 17 18 19 21 19 23 23 23 21 22 22 24 20 21 20 14 13 12 7 11 14 17 17 16 15 15 14 14 14 13 10 13 15 15 14 13 12 10 13 13 16 17 19 15 18 16 11 18 17 16 15 15
22 21 21 21 22 23 21 20 17 15 18 19 21 19 18 20 23 24 24 23 22 21 24 28 18 18 17 16 16 13 15 13 12 18 20 18 17 17 15 14 14 11 15 18 17 17 17 16 16 17 17 17 18 16 18 17 16 15 16 16 16 16 16
23 22 21 21 23 24 23 23 22 20 17 17 20 21 22 22 22 23 23 23 23 24 23 23 24 19 17 17 18 19 17 15 15 18 21 20 19 19 18 18 16 14 20 21 20 19 18 18 16 19 19 18 17 15 12 15 13 15 16 16 15 15 14
24 23 23 21 22 25 26 25 25 26 23 20 21 22 22 20 21 22 21 20 20 20 19 19 18 21 18 19 20 21 22 21 19 20 21 23 22 22 19 16 15 17 23 24 25 23 19 17 21 17 16 16 13 10 17 16 15 16 15 16 16 15 15
Wind_Speed
9 9 8 4 2 1 5 6 3 2 3 5 5 7 6 3 2 6 7 8 10 9 9 8 8 8 8 8 8 8 9 9 10 8 10 10 11 10 8 5 3 2 5 3 4 6 4 7 6 5 4 5 4 6 6 6 6 5 5 4 4 5 4
7 6 4 3 4 6 9 7 5 6 5 4 5 4 5 9 9 8 8 9 10 9 10 10 8 8 11 9 8 8 10 9 8 8 9 11 11 9 10 8 6 4 5 3 3 4 4 5 6 7 6 5 5 5 4 5 5 5 6 5 4 6 6
3 2 2 4 5 8 8 6 5 5 6 8 4 5 5 4 6 7 7 9 10 12 9 10 10 11 10 10 11 11 12 11 8 9 9 9 9 8 10 10 9 7 6 5 5 6 3 4 4 8 8 8 8 6 5 5 6 6 6 5 5 6 5
5 3 3 5 5 5 5 5 4 6 4 5 6 5 8 7 9 10 10 11 11 11 11 10 9 9 10 11 10 13 11 12 9 9 9 8 8 8 10 9 10 10 9 9 8 7 6 6 5 6 7 9 8 7 7 6 6 6 5 6 6 6 5
5 4 4 6 6 4 8 6 6 6 7 4 4 6 9 7 6 7 9 10 10 11 12 11 9 8 8 9 9 10 9 10 9 9 7 6 8 8 10 9 9 9 8 6 6 7 6 6 6 5 6 7 7 6 6 4 6 5 6 6 6 5 5
3 5 7 9 8 8 9 8 7 8 6 5 6 6 7 9 8 8 8 8 10 10 12 10 8 7 5 7 8 7 7 12 10 10 10 11 12 10 10 10 9 9 9 6 5 6 5 4 4 5 6 8 7 7 6 6 5 5 5 6 6 5 5
4 8 9 8 8 8 6 7 7 7 8 10 9 10 8 8 8 9 8 9 8 8 11 11 10 7 6 8 9 10 11 8 5 10 9 10 11 12 9 8 10 9 8 7 6 6 6 5 6 6 6 6 6 7 5 6 6 6 5 5 6 6 4
6 8 8 8 8 8 7 9 9 8 8 8 10 10 9 10 9 8 9 11 7 6 8 10 9 8 8 8 9 11 9 9 10 10 9 10 10 12 11 9 9 9 8 8 7 7 6 6 6 7 8 8 6 6 6 6 6 9 6 7 7 6 6
7 8 8 7 8 8 9 10 9 7 7 7 8 9 10 11 10 11 10 9 9 9 8 8 9 8 8 9 9 9 11 9 9 12 11 10 12 12 12 10 8 9 7 8 8 7 7 6 6 6 7 8 8 7 7 6 7 8 9 7 7 8 8
8 10 9 8 8 8 8 7 6 7 7 7 7 8 9 11 11 10 10 12 11 8 9 9 8 9 10 10 9 10 10 11 10 11 10 11 12 11 10 11 8 7 7 7 7 6 7 6 6 6 7 7 7 6 8 8 9 8 10 10 8 9 9
9 8 8 10 9 8 7 6 6 8 9 7 6 7 9 11 10 11 10 11 9 9 9 7 8 10 10 9 9 10 10 10 9 7 9 11 10 8 8 8 8 7 7 7 9 7 7 6 6 7 7 7 6 7 6 8 7 8 7 9 7 6 9
9 10 8 8 9 9 8 7 8 8 8 7 6 7 10 10 10 10 10 9 9 8 8 8 8 8 9 9 10 9 9 9 9 9 8 8 9 8 11 11 8 7 7 8 7 7 7 7 7 7 7 6 6 7 6 6 6 5 5 7 8 5 8
10 9 9 8 7 8 8 8 8 9 9 6 7 8 10 11 10 10 11 10 11 10 8 9 10 8 9 9 9 9 9 11 10 11 10 10 8 10 10 11 10 8 8 8 8 7 7 7 7 7 7 7 6 6 5 6 7 4 4 3 6 6 7
10 8 9 7 8 9 9 10 10 9 8 8 8 9 11 12 11 10 11 11 12 12 12 11 10 9 9 10 10 10 9 10 11 9 9 9 7 8 10 12 10 9 9 9 8 7 7 8 7 7 7 7 7 6 7 7 7 4 3 1 2 5 6
9 9 7 8 10 10 11 10 9 8 8 8 9 10 12 11 11 11 11 11 12 12 12 12 11 10 10 11 11 8 8 11 11 11 9 9 8 9 9 10 9 10 9 10 9 9 8 8 8 8 8 8 8 7 8 8 7 6 4 3 4 3 5
10 11 10 8 9 10 11 10 7 7 8 9 10 11 11 12 11 10 10 11 11 12 12 12 11 12 11 12 12 9 9 11 12 12 10 10 11 10 11 11 10 9 8 10 10 9 8 7 6 8 9 8 8 8 9 9 6 7 6 5 5 6 6
10 10 10 9 10 10 10 10 9 9 9 9 10 10 11 11 11 10 11 11 11 11 12 12 12 12 12 12 12 11 11 11 12 12 10 9 10 12 12 10 10 10 10 10 10 8 8 9 9 6 8 7 7 7 7 7 8 6 6 6 6 6 6
10 10 9 8 9 8 9 11 9 9 9 10 10 10 10 10 11 11 11 12 12 12 12 12 12 12 11 11 11 10 10 11 11 9 8 8 9 12 11 10 10 11 10 11 10 9 9 11 9 8 7 7 6 6 6 7 8 8 6 6 5 3 4
11 11 11 10 11 11 10 10 10 10 10 11 10 9 10 10 10 12 12 12 12 12 12 11 12 12 12 12 10 9 10 9 9 8 8 9 10 12 10 10 10 10 10 11 10 9 9 11 10 9 9 7 7 6 6 7 8 7 7 6 5 5 4
12 12 11 10 10 11 11 10 10 10 10 10 10 9 10 11 10 11 12 12 12 12 11 11 11 12 12 12 12 11 10 10 10 8 6 8 10 12 9 8 8 10 10 10 10 10 10 9 8 10 8 8 8 7 7 7 7 4 3 1 3 4 5
13 13 12 12 11 11 11 11 10 9 9 10 10 11 11 10 10 11 12 12 12 11 11 11 12 12 11 11 11 11 11 9 9 9 8 8 9 7 8 7 7 8 9 8 9 9 9 8 6 7 7 7 7 7 6 6 6 7 9 10 7 6 5
12 13 14 13 12 10 10 11 10 10 10 10 9 11 11 11 11 11 12 12 12 10 11 11 10 11 11 11 10 11 11 11 9 8 8 7 10 9 7 6 5 6 6 5 5 6 7 9 9 8 7 5 7 7 7 6 7 7 8 7 6 4 5
14 13 13 13 12 11 10 11 11 10 10 11 11 10 10 11 11 12 12 12 12 11 11 10 9 13 11 10 10 8 8 9 7 5 4 6 8 7 6 6 5 5 7 8 8 9 10 11 9 9 8 9 10 8 8 8 7 8 8 8 7 6 5
13 13 13 13 12 12 11 10 11 12 11 11 11 9 10 11 11 11 12 12 13 11 9 5 10 12 11 11 9 8 8 8 8 7 8 8 6 8 8 7 6 6 6 6 6 9 10 7 6 1 2 4 3 6 8 9 8 7 8 8 8 8 7
13 13 13 13 13 13 11 11 10 11 12 12 9 8 10 10 10 11 11 13 10 7 6 9 12 13 12 13 11 8 7 8 10 9 8 9 8 6 7 5 4 4 6 6 7 6 8 9 8 8 8 6 5 3 4 2 5 7 7 7 7 7 6
13 12 12 11 11 11 11 11 10 10 9 6 5 7 8 7 9 7 7 8 9 8 5 8 12 13 13 14 14 11 7 8 8 9 10 8 7 7 6 6 5 4 5 9 8 8 8 8 9 11 11 10 9 7 4 4 6 4 5 5 4 2 4
12 12 11 10 10 10 11 10 10 9 8 8 6 4 4 1 1 2 4 4 7 4 3 6 10 11 12 13 13 8 7 8 7 8 7 6 5 6 6 6 6 5 6 6 7 9 9 9 9 8 7 5 5 6 7 6 1 1 3 3 7 6 1
12 12 12 11 10 10 11 10 11 11 9 8 8 7 7 7 6 5 6 6 5 4 2 3 9 12 13 14 13 9 8 7 6 6 5 5 4 5 5 4 6 6 6 6 6 8 10 9 9 8 8 8 8 7 7 6 3 1 4 3 4 5 5
13 12 12 12 13 13 12 11 10 10 9 9 8 6 8 8 7 6 7 8 7 7 8 9 8 14 15 16 14 8 8 7 7 7 6 5 4 3 3 4 6 7 7 7 8 10 10 10 10 10 10 10 10 10 9 8 11 13 11 9 8 8 7
13 13 12 12 13 13 13 13 11 9 10 10 9 10 9 7 6 8 10 10 9 8 7 11 9 8 17 16 12 7 8 8 7 7 6 5 5 4 3 3 5 7 8 8 9 12 12 12 10 11 10 10 11 12 10 8 13 17 19 18 17 15 13
12 12 12 12 12 12 12 12 12 10 11 11 10 9 6 7 10 10 12 12 10 7 5 12 14 13 6 14 13 9 7 8 8 7 6 5 5 6 7 10 4 7 9 9 11 12 12 11 11 11 11 11 11 11 10 8 7 9 14 16 16 16 14
12 12 12 12 11 12 12 12 11 10 8 9 8 5 6 9 10 11 11 10 17 10 8 11 16 16 15 8 6 6 7 8 8 6 6 6 6 6 6 8 11 7 8 12 11 9 9 10 10 9 9 10 10 10 8 6 7 8 8 8 7 9 10
13 12 12 12 12 11 10 11 12 10 8 7 7 9 9 10 11 9 11 11 10 10 11 11 15 18 13 12 9 2 6 8 8 7 6 6 7 6 6 6 7 10 11 11 9 6 3 3 8 8 8 9 10 9 5 6 5 7 9 9 8 9 8
12 12 12 11 11 12 12 11 10 11 10 9 9 10 10 10 10 12 12 11 12 13 13 11 13 17 13 10 10 6 5 5 7 7 7 7 6 6 5 5 5 8 9 10 10 10 9 9 8 7 7 8 9 11 10 9 8 9 9 9 8 7 6
11 11 11 11 12 13 11 11 9 8 9 10 12 10 10 9 10 12 12 13 13 11 15 21 11 14 14 12 13 12 6 6 5 9 10 8 8 7 7 6 5 7 11 12 12 12 12 12 12 8 9 15 15 14 9 9 8 7 7 7 7 7 6
11 11 11 12 13 13 13 13 13 11 10 9 11 11 11 12 12 12 13 12 12 13 13 13 19 13 14 14 15 15 15 11 12 9 10 9 9 9 8 9 8 10 14 16 16 15 14 15 12 10 15 14 14 13 9 6 6 6 7 7 7 6 6
13 12 12 11 12 14 14 14 14 13 12 11 10 12 11 11 11 12 11 10 10 11 10 10 14 17 13 16 16 17 17 17 15 11 10 10 10 10 10 9 8 9 14 17 19 18 15 13 11 12 13 13 11 9 8 7 6 7 7 7 7 6 6
Wind_Direction
229 246 238 225 172 115 260 235 171 219 196 211 241 251 247 244 229 216 201 211 214 204 212 216 199 194 197 201 184 203 192 192 194 191 182 180 187 196 195 186 179 190 188 221 240 198 194 182 187 184 160 175 189 195 188 197 193 174 158 164 159 159 172
245 242 216 149 183 198 232 236 220 198 191 176 204 238 191 180 186 185 177 210 222 220 210 212 198 170 188 188 179 199 198 199 198 200 187 188 195 193 185 189 188 184 180 204 196 212 199 175 177 179 178 158 200 194 192 206 188 180 172 173 167 166 167
242 243 208 225 219 228 239 237 238 217 200 207 196 227 233 220 205 204 201 208 216 221 222 220 206 186 182 187 187 206 205 201 202 200 198 188 194 195 193 185 188 184 191 194 200 198 195 211 184 194 185 177 196 185 187 199 196 191 177 171 173 181 169
223 185 205 228 203 196 235 226 171 252 222 207 174 203 240 225 212 208 209 212 220 225 226 222 214 205 179 171 174 201 201 204 202 204 205 195 192 194 194 192 196 195 190 196 189 192 191 184 194 182 188 195 200 181 196 199 197 190 182 183 186 183 180
193 169 194 229 221 205 220 197 157 201 224 203 177 189 211 212 228 227 221 219 219 222 226 223 215 205 191 148 181 196 200 208 204 204 192 204 199 199 201 202 204 202 202 204 185 188 195 193 198 182 182 185 198 200 173 187 212 191 192 191 194 186 186
211 200 206 233 220 217 223 211 191 208 210 213 216 224 225 204 196 217 228 230 224 221 222 220 220 214 196 151 164 187 205 211 203 202 204 199 202 199 202 207 211 208 209 208 194 199 203 197 200 182 175 178 192 183 177 179 195 214 197 193 193 196 193
195 213 222 229 232 224 220 227 217 212 200 201 208 217 216 208 201 193 195 219 231 234 233 223 212 202 165 159 149 178 196 197 178 212 217 210 205 206 202 201 208 211 213 205 205 208 203 190 188 188 168 176 197 190 178 199 194 196 204 210 197 195 193
234 228 235 231 231 237 233 231 228 217 211 209 204 211 213 213 205 196 194 199 183 201 231 234 211 197 190 184 185 193 197 190 195 196 205 212 215 211 206 209 204 210 208 207 205 208 202 200 195 180 173 169 179 199 192 205 198 220 198 193 196 199 201
250 249 251 239 230 226 225 225 227 224 221 223 216 206 209 210 205 206 200 193 187 193 207 224 217 193 183 183 190 191 193 196 196 203 205 206 217 219 213 209 207 207 201 205 207 209 210 206 200 181 178 173 169 185 200 199 210 218 212 192 192 202 198
272 262 261 259 249 239 232 229 235 242 236 230 230 221 216 211 206 200 201 201 196 189 195 206 213 214 199 196 198 194 195 197 193 207 213 213 216 215 215 203 209 202 197 197 208 203 208 207 199 189 192 191 190 181 183 204 207 211 197 202 191 191 199
270 271 273 270 262 249 236 224 224 236 238 237 231 233 230 222 211 200 203 213 206 186 190 191 211 217 205 199 200 205 205 194 192 186 212 217 221 211 215 216 211 206 192 194 206 198 198 198 198 197 201 205 203 210 192 204 198 203 188 197 210 166 183
282 277 270 264 267 257 247 238 232 240 245 235 231 233 237 234 217 204 198 211 212 201 193 193 207 217 214 203 202 205 203 193 190 191 189 205 217 201 207 212 209 210 194 196 192 191 194 194 200 199 205 208 209 226 222 217 208 169 195 180 198 187 171
304 291 285 274 260 257 246 246 244 239 238 233 221 225 233 234 227 208 200 202 206 203 191 201 208 199 209 209 202 202 196 195 199 203 198 200 200 206 202 207 207 203 191 195 195 191 192 197 198 202 202 206 207 215 227 223 231 170 182 200 180 177 164
318 296 278 264 267 261 247 240 238 239 232 220 206 213 224 231 230 220 206 204 206 205 201 202 209 208 208 211 209 202 189 194 200 203 205 200 205 206 201 207 202 198 189 194 194 190 193 193 193 202 205 204 208 200 212 219 223 190 126 133 181 172 160
320 325 287 255 256 260 260 251 244 244 236 225 216 219 224 228 228 222 215 208 207 205 204 202 200 200 202 203 202 194 189 195 197 202 194 176 189 212 212 208 190 189 189 195 190 192 190 190 193 199 201 207 205 200 207 215 218 214 165 156 181 161 159
320 323 322 298 268 263 268 269 264 252 245 236 230 227 228 228 226 222 220 216 210 209 208 206 202 199 201 201 198 190 189 195 193 193 198 181 180 209 214 203 193 188 189 198 197 198 191 183 196 203 206 203 208 202 201 213 213 208 192 172 175 177 179
317 316 317 314 301 284 271 270 264 255 246 244 241 233 228 226 225 223 222 219 214 209 206 204 202 202 203 201 194 187 191 199 197 192 194 188 190 200 205 201 193 186 189 195 196 192 191 177 203 208 213 204 203 195 198 202 214 220 202 174 182 195 178
325 323 316 307 301 291 279 273 273 265 251 247 244 237 227 221 220 220 221 217 213 208 205 202 201 201 203 201 194 186 188 201 202 194 186 182 194 212 203 197 188 188 188 198 195 191 181 178 192 203 213 207 204 199 193 200 212 212 202 202 156 180 159
328 323 316 310 302 297 290 284 277 270 261 255 243 229 226 215 214 220 222 220 215 211 207 205 202 199 197 195 187 180 184 194 200 192 185 179 201 217 204 196 185 185 189 198 193 190 184 185 190 200 205 204 206 199 197 199 209 208 215 207 168 156 186
324 321 317 310 304 296 293 291 285 279 270 260 252 235 223 218 215 221 225 221 219 214 208 205 201 195 192 185 179 182 188 193 197 202 175 177 217 218 202 193 176 186 194 198 193 188 185 188 195 204 201 201 208 204 196 205 206 145 61 302 189 182 170
321 319 316 310 300 294 289 287 288 281 271 266 255 245 234 223 219 217 226 224 220 215 207 202 198 191 189 184 179 178 182 196 196 201 195 182 211 228 213 175 174 186 195 192 192 189 187 185 181 206 203 208 206 204 204 199 183 138 191 216 217 194 189
324 320 315 311 304 298 296 292 284 278 269 263 256 250 243 231 217 215 220 224 221 211 206 199 194 188 186 187 176 169 175 186 191 196 196 180 206 207 202 183 182 185 187 171 171 170 172 173 185 196 194 207 224 211 209 203 194 180 195 196 192 185 179
330 324 320 313 307 303 300 299 295 289 278 270 265 254 243 234 225 216 214 215 213 206 203 202 183 179 180 178 173 163 165 168 163 165 164 190 199 168 188 185 195 160 161 165 168 165 169 168 176 196 196 195 212 210 209 206 198 197 197 191 186 179 191
336 332 335 326 314 306 305 301 297 293 285 272 263 254 237 231 221 218 212 207 206 204 198 180 175 176 177 160 158 157 163 170 172 161 173 180 199 165 174 172 174 157 161 160 161 174 190 165 167 161 191 193 196 228 211 208 209 201 200 197 184 196 193
347 348 347 347 344 336 327 316 305 296 287 273 254 235 226 218 212 207 209 211 202 185 181 166 172 176 173 169 168 161 151 159 173 181 181 191 181 159 148 144 135 139 167 167 156 133 86 90 107 98 90 87 91 45 358 255 211 201 204 199 183 199 202
354 357 357 357 356 354 357 357 353 346 330 301 233 216 216 214 213 205 199 198 195 185 140 166 172 172 169 173 170 161 162 157 161 167 182 175 155 152 151 139 133 128 124 135 142 142 127 107 99 103 102 92 67 56 38 1 343 310 216 203 128 182 223
0 359 358 359 4 7 5 3 356 354 348 355 353 348 6 143 156 177 222 203 171 143 139 169 163 161 159 158 154 144 134 133 137 145 152 144 143 148 151 146 140 136 143 152 151 145 132 128 127 124 117 103 93 79 65 50 83 354 327 140 163 190 149
4 5 5 7 10 13 14 9 11 10 13 16 18 21 17 19 16 34 33 29 28 16 14 150 152 154 146 138 121 110 110 109 109 107 105 114 118 130 133 131 131 132 139 144 147 146 139 134 123 111 102 89 75 58 39 21 17 124 144 158 131 93 102
8 10 13 16 19 18 16 15 17 16 22 26 20 24 33 29 21 32 48 46 47 29 13 346 164 143 133 125 115 110 111 108 109 110 109 105 110 112 118 124 128 128 135 131 122 132 129 129 120 113 104 98 90 75 61 48 61 61 62 69 71 71 65
12 12 17 23 25 24 22 20 20 20 32 31 33 39 43 34 28 36 51 50 49 40 38 10 359 134 129 119 107 105 113 113 109 111 107 110 101 90 85 104 126 130 128 128 134 132 135 129 119 114 107 100 102 94 86 71 67 79 87 90 93 89 83
18 17 18 24 28 27 26 29 30 30 39 37 32 28 39 47 46 34 47 49 41 33 27 22 24 7 63 120 124 119 121 116 111 109 106 87 88 78 55 29 34 128 126 132 141 139 145 128 119 119 115 109 100 101 99 96 88 82 83 84 84 85 77
24 24 24 23 27 36 31 29 27 30 36 42 29 4 23 55 52 42 38 45 34 27 31 31 23 24 14 26 97 111 118 120 115 111 110 96 83 86 75 51 28 41 107 127 135 140 151 132 123 127 123 111 111 112 118 113 102 100 92 83 73 76 71
29 30 31 29 28 36 44 41 33 31 33 40 42 33 35 44 49 45 44 36 36 19 28 23 25 24 15 9 5 61 116 119 120 114 101 101 98 82 79 77 58 52 93 112 111 105 79 117 127 132 126 120 122 121 127 98 85 99 93 92 87 80 80
28 27 31 32 33 33 32 42 47 42 38 39 41 42 36 49 44 51 48 47 40 33 31 25 23 22 18 15 24 25 74 85 111 109 102 87 80 82 71 59 69 44 75 87 93 87 83 80 94 111 114 127 126 130 126 112 101 97 99 99 96 92 87
32 33 32 36 39 39 33 27 32 43 44 42 43 40 35 43 49 52 48 42 41 33 31 31 20 20 16 31 37 40 70 57 55 106 90 83 76 68 58 57 59 56 73 78 76 79 79 83 86 77 91 106 114 121 121 116 116 112 107 105 101 92 86
33 35 32 37 44 44 40 40 35 38 40 45 48 44 37 39 42 45 45 38 36 33 32 31 26 26 22 36 49 57 58 64 57 66 87 84 78 78 75 71 69 77 88 84 80 75 77 79 74 91 103 105 109 111 110 99 104 108 100 89 82 76 66
35 36 34 35 45 48 46 45 44 41 41 43 46 46 41 39 44 46 45 44 38 37 34 36 30 29 33 41 53 61 65 63 66 76 77 90 91 88 80 72 67 65 79 83 80 75 66 72 91 88 94 101 103 100 102 105 97 96 96 93 87 79 71